Content
SEND FEEDBACK

Daily
Averages
Monthly
Summary
French Polynesia

HITIAA, FRENCH POLYNESIA


Home > Oceania > French Polynesia
Elevation: 7 feet     Latitude: 17 33S     Longitude: 149 37W

WEATHER
 
SELECT A DAY
Number of Records: 217,333;   Date Range: 6/30/96 - 12/17/14
 
SHARE

PRINT THIS DATA

[ ← Previous Day ]
WEATHER ALMANAC - MARCH 12, 2014
[ Next Day → ]
[ °C ]   °F
Weather ElementAverageHighLow
Temperature82.8 °F87.8 °F (11:30 am)78.8 °F (4:00 am)
Dewpoint72.7 °F75.2 °F (11:00 am)68 °F (2:30 am)
Humidity70.6 %79 % (6:00 pm)60 % (8:00 am)
Barometer29.85 in29.89 in (8:00 am)29.80 in (3:00 am)
Wind Speed9.5 mph15 mph (1:00 pm)
Weather ElementAverage
Visibility8 mi
Wind DirectionENE (55.3 °)

Weather ElementTotal
Precipitation---
Cooling Degree Days18.3 (Base 65)
Growing Degree Days33.3 (Base 50)
Averaged from 55 records on March 12, 2014
WEATHER CONDITIONS BREAKOUT
WIND DIRECTION BREAKOUT
WEATHER BY HOUR - MARCH 12, 2014
[ °C ]   °F
Local TimeTemperatureDewpointHumidityBarometerVisibilityWind DirectionWind SpeedGust SpeedPrecipitationEventsConditions
12:30 AM80.6 °F69.8 °F70 %29.86 in6.2 miENE (60°)9.2 mphScattered Clouds
1:00 AM80.6 °F71.6 °F74 %29.83 in6.2 miENE (70°)8.1 mphScattered Clouds
1:30 AM80.6 °F71.6 °F74 %29.83 in6.2 miENE (70°)9.2 mphPartly Cloudy
2:00 AM80.0 °F71.0 °F66 %29.84 in12.0 miENE (60°)8.1 mphScattered Clouds
2:00 AM80.6 °F71.6 °F74 %29.83 in6.2 miENE (60°)8.1 mphPartly Cloudy
2:30 AM80.6 °F68.0 °F65 %29.83 in6.2 miEast (90°)6.9 mphPartly Cloudy
3:00 AM80.6 °F68.0 °F65 %29.80 in6.2 miEast (80°)6.9 mphPartly Cloudy
3:30 AM80.6 °F69.8 °F70 %29.80 in6.2 miENE (70°)6.9 mph
4:00 AM78.8 °F69.8 °F74 %29.80 in6.2 miENE (60°)8.1 mph
4:30 AM80.6 °F69.8 °F70 %29.83 in6.2 miENE (60°)8.1 mph
5:00 AM79.0 °F71.0 °F70 %29.83 in37.0 miENE (60°)8.1 mphClear
5:00 AM78.8 °F71.6 °F78 %29.83 in6.2 miENE (60°)8.1 mph
5:30 AM78.8 °F69.8 °F74 %29.83 in6.2 miENE (70°)8.1 mph
6:00 AM78.8 °F69.8 °F74 %29.83 in6.2 miENE (60°)6.9 mphPartly Cloudy
6:30 AM78.8 °F69.8 °F74 %29.86 in6.2 miENE (60°)6.9 mphPartly Cloudy
7:00 AM80.6 °F69.8 °F70 %29.86 in6.2 miENE (60°)6.9 mphPartly Cloudy
7:30 AM82.4 °F69.8 °F66 %29.86 in6.2 miNE (50°)8.1 mphScattered Clouds
8:00 AM84.0 °F72.0 °F60 %29.89 in19.0 miENE (60°)10.4 mphPartly Cloudy
8:00 AM84.2 °F71.6 °F66 %29.89 in6.2 miENE (60°)10.4 mphScattered Clouds
8:30 AM86.0 °F73.4 °F66 %29.89 in6.2 miNE (50°)11.5 mphScattered Clouds
9:00 AM86.0 °F73.4 °F66 %29.89 in6.2 miNE (50°)11.5 mphScattered Clouds
9:30 AM86.0 °F73.4 °F66 %29.89 in6.2 miNE (50°)13.8 mphScattered Clouds
10:00 AM86.0 °F73.4 °F66 %29.86 in6.2 miNE (50°)13.8 mphMostly Cloudy
10:30 AM86.0 °F73.4 °F66 %29.86 in6.2 miNE (40°)12.7 mphMostly Cloudy
11:00 AM86.0 °F74.0 °F61 %29.87 in19.0 miNE (40°)13.8 mphScattered Clouds
11:00 AM86.0 °F75.2 °F70 %29.86 in6.2 miNE (40°)13.8 mphMostly Cloudy
11:30 AM87.8 °F75.2 °F66 %29.86 in6.2 miNE (40°)12.7 mphMostly Cloudy
12:00 PM86.0 °F75.2 °F70 %29.83 in6.2 miNE (40°)12.7 mphMostly Cloudy
12:30 PM87.8 °F75.2 °F66 %29.83 in6.2 miNE (40°)13.8 mphMostly Cloudy
1:00 PM86.0 °F73.4 °F66 %29.83 in6.2 miNE (40°)15.0 mphMostly Cloudy
1:30 PM86.0 °F73.4 °F66 %29.83 in6.2 miNE (40°)12.7 mphMostly Cloudy
2:00 PM86.0 °F74.0 °F60 %29.82 in19.0 miNE (40°)12.7 mphScattered Clouds
2:00 PM86.0 °F73.4 °F66 %29.80 in6.2 miNE (40°)12.7 mphMostly Cloudy
2:30 PM86.0 °F73.4 °F66 %29.80 in6.2 miNE (40°)11.5 mphMostly Cloudy
3:00 PM86.0 °F73.4 °F66 %29.80 in6.2 miNE (40°)11.5 mphMostly Cloudy
3:30 PM86.0 °F75.2 °F70 %29.80 in6.2 miNE (40°)10.4 mphMostly Cloudy
4:00 PM86.0 °F75.2 °F70 %29.80 in6.2 miNE (40°)10.4 mphMostly Cloudy
4:30 PM84.2 °F75.2 °F74 %29.80 in6.2 miNE (40°)12.7 mphMostly Cloudy
5:00 PM84.0 °F74.0 °F64 %29.83 in19.0 miNE (40°)11.5 mphPartly Cloudy
5:00 PM84.2 °F73.4 °F70 %29.83 in6.2 miNE (40°)11.5 mphMostly Cloudy
5:30 PM84.2 °F75.2 °F74 %29.83 in6.2 miENE (60°)6.9 mphMostly Cloudy
6:00 PM82.4 °F75.2 °F79 %29.83 in6.2 miNNE (30°)10.4 mphMostly Cloudy
6:30 PM82.4 °F73.4 °F74 %29.83 in6.2 miNNE (30°)10.4 mphMostly Cloudy
7:00 PM82.4 °F73.4 °F74 %29.86 in6.2 miNE (50°)8.1 mphMostly Cloudy
7:30 PM82.4 °F73.4 °F74 %29.86 in6.2 miENE (60°)6.9 mphMostly Cloudy
8:00 PM81.0 °F74.0 °F72 %29.87 in12.0 miENE (70°)8.1 mphScattered Clouds
8:00 PM80.6 °F73.4 °F79 %29.86 in6.2 miENE (70°)8.1 mphMostly Cloudy
8:30 PM80.6 °F73.4 °F79 %29.86 in6.2 miEast (80°)6.9 mphMostly Cloudy
9:00 PM80.6 °F73.4 °F79 %29.86 in6.2 miENE (60°)5.8 mphMostly Cloudy
9:30 PM80.6 °F73.4 °F79 %29.86 in6.2 miENE (70°)6.9 mphMostly Cloudy
10:00 PM80.6 °F73.4 °F79 %29.89 in6.2 miENE (60°)6.9 mphMostly Cloudy
10:30 PM80.6 °F73.4 °F79 %29.89 in6.2 miEast (80°)6.9 mphMostly Cloudy
11:00 PM81.0 °F73.0 °F71 %29.89 in12.0 miENE (70°)4.6 mphPartly Cloudy
11:00 PM80.6 °F73.4 °F79 %29.89 in6.2 miENE (70°)4.6 mphMostly Cloudy
11:30 PM80.6 °F73.4 °F79 %29.89 in6.2 miEast (80°)4.6 mphMostly Cloudy
Hourly data recorded from NTAA, located miles away from Hitiaa, French Polynesia







STORIES FROM OUR PARTNERS